Time,TemperatureF,DewpointF,PressureIn,WindDirection,WindDirectionDegrees,WindSpeedMPH,WindSpeedGustMPH,Humidity,HourlyPrecipIn,Conditions,Clouds,dailyrainin,SoftwareType,DateUTC
2013-07-28 00:09:00,73.9,61.8,29.86,SSE,157,0.0,-999.0,66,-99.99,,,0.00,Acu-Link.com,2013-07-28 05:09:00,
2013-07-28 00:24:00,73.0,61.8,29.86,ESE,112,0.0,-999.0,68,-99.99,,,0.00,Acu-Link.com,2013-07-28 05:24:00,
2013-07-28 00:39:00,71.6,61.7,29.86,ESE,112,0.0,-999.0,71,-99.99,,,0.00,Acu-Link.com,2013-07-28 05:39:00,
2013-07-28 00:55:00,71.1,62.0,29.86,ESE,112,0.0,-999.0,73,-99.99,,,0.00,Acu-Link.com,2013-07-28 05:55:00,
2013-07-28 01:10:00,70.5,61.8,29.86,ESE,112,0.0,-999.0,74,-99.99,,,0.00,Acu-Link.com,2013-07-28 06:10:00,
2013-07-28 01:25:00,69.8,61.9,29.85,ESE,112,0.0,-999.0,76,-99.99,,,0.00,Acu-Link.com,2013-07-28 06:25:00,
2013-07-28 01:41:00,69.6,62.1,29.84,NE,45,0.0,-999.0,77,-99.99,,,0.00,Acu-Link.com,2013-07-28 06:41:00,
2013-07-28 01:56:00,69.6,62.4,29.85,SE,135,0.0,-999.0,78,-99.99,,,0.00,Acu-Link.com,2013-07-28 06:56:00,
2013-07-28 02:12:00,69.6,62.8,29.85,ESE,112,0.0,-999.0,79,-99.99,,,0.00,Acu-Link.com,2013-07-28 07:12:00,
2013-07-28 02:27:00,69.4,63.0,29.85,SE,135,0.0,-999.0,80,-99.99,,,0.00,Acu-Link.com,2013-07-28 07:27:00,
2013-07-28 02:42:00,69.4,63.3,29.85,SE,135,0.0,-999.0,81,-99.99,,,0.00,Acu-Link.com,2013-07-28 07:42:00,
2013-07-28 02:57:00,68.7,63.3,29.86,SE,135,0.0,-999.0,83,-99.99,,,0.00,Acu-Link.com,2013-07-28 07:57:00,
2013-07-28 03:13:00,68.5,63.5,29.85,SE,135,0.0,-999.0,84,-99.99,,,0.00,Acu-Link.com,2013-07-28 08:13:00,
2013-07-28 03:28:00,68.5,63.8,29.85,SE,135,0.0,-999.0,85,-99.99,,,0.00,Acu-Link.com,2013-07-28 08:28:00,
2013-07-28 03:43:00,68.5,63.8,29.85,SE,135,0.0,-999.0,85,-99.99,,,0.00,Acu-Link.com,2013-07-28 08:43:00,
2013-07-28 03:59:00,67.8,63.1,29.85,SE,135,0.0,-999.0,85,-99.99,,,0.00,Acu-Link.com,2013-07-28 08:59:00,
2013-07-28 04:14:00,67.5,63.8,29.84,SSE,157,0.0,-999.0,88,-99.99,,,0.00,Acu-Link.com,2013-07-28 09:14:00,
2013-07-28 04:29:00,66.7,63.4,29.84,SSE,157,0.0,-999.0,89,-99.99,,,0.00,Acu-Link.com,2013-07-28 09:29:00,
2013-07-28 04:45:00,66.6,63.9,29.83,SSE,157,0.0,-999.0,91,-99.99,,,0.00,Acu-Link.com,2013-07-28 09:45:00,
2013-07-28 05:00:00,66.0,63.9,29.83,SSE,157,0.0,-999.0,93,-99.99,,,0.00,Acu-Link.com,2013-07-28 10:00:00,
2013-07-28 05:15:00,65.8,63.7,29.83,SE,135,0.0,-999.0,93,-99.99,,,0.00,Acu-Link.com,2013-07-28 10:15:00,
2013-07-28 05:30:00,65.5,63.7,29.83,SE,135,0.0,-999.0,94,-99.99,,,0.00,Acu-Link.com,2013-07-28 10:30:00,
2013-07-28 05:46:00,65.1,63.3,29.83,SE,135,0.0,-999.0,94,-99.99,,,0.00,Acu-Link.com,2013-07-28 10:46:00,
2013-07-28 06:32:00,65.5,64.6,29.83,ESE,112,0.0,-999.0,97,-99.99,,,0.00,Acu-Link.com,2013-07-28 11:32:00,
2013-07-28 06:47:00,65.7,64.8,29.84,SSE,157,0.0,-999.0,97,-99.99,,,0.00,Acu-Link.com,2013-07-28 11:47:00,
2013-07-28 07:02:00,66.2,65.3,29.84,SSE,157,0.0,-999.0,97,-99.99,,,0.00,Acu-Link.com,2013-07-28 12:02:00,
2013-07-28 07:18:00,66.7,65.8,29.84,SE,135,2.2,-999.0,97,-99.99,,,0.00,Acu-Link.com,2013-07-28 12:18:00,
2013-07-28 07:33:00,67.5,66.6,29.85,SE,135,0.0,-999.0,97,-99.99,,,0.00,Acu-Link.com,2013-07-28 12:33:00,
2013-07-28 07:48:00,68.4,66.9,29.85,SE,135,2.2,-999.0,95,-99.99,,,0.00,Acu-Link.com,2013-07-28 12:48:00,
2013-07-28 08:04:00,69.8,67.4,29.85,SE,135,3.2,-999.0,92,-99.99,,,0.00,Acu-Link.com,2013-07-28 13:04:00,
2013-07-28 08:19:00,70.9,68.1,29.85,ESE,112,2.7,-999.0,91,-99.99,,,0.00,Acu-Link.com,2013-07-28 13:19:00,
2013-07-28 08:34:00,75.0,69.1,29.85,East,90,4.2,-999.0,82,-99.99,,,0.00,Acu-Link.com,2013-07-28 13:34:00,
2013-07-28 08:50:00,77.7,69.5,29.85,ESE,112,4.2,-999.0,76,-99.99,,,0.00,Acu-Link.com,2013-07-28 13:50:00,
2013-07-28 09:05:00,79.3,69.9,29.84,ESE,112,4.2,-999.0,73,-99.99,,,0.00,Acu-Link.com,2013-07-28 14:05:00,
2013-07-28 09:20:00,79.7,69.4,29.84,ESE,112,5.3,-999.0,71,-99.99,,,0.00,Acu-Link.com,2013-07-28 14:20:00,
2013-07-28 09:36:00,81.7,70.5,29.84,East,90,5.8,-999.0,69,-99.99,,,0.00,Acu-Link.com,2013-07-28 14:36:00,
2013-07-28 09:51:00,81.3,69.7,29.84,South,180,5.3,-999.0,68,-99.99,,,0.00,Acu-Link.com,2013-07-28 14:51:00,
2013-07-28 10:06:00,84.0,70.5,29.84,East,90,4.2,-999.0,64,-99.99,,,0.00,Acu-Link.com,2013-07-28 15:06:00,
2013-07-28 10:21:00,82.8,69.8,29.84,SW,225,1.7,-999.0,65,-99.99,,,0.00,Acu-Link.com,2013-07-28 15:21:00,
2013-07-28 10:52:00,87.3,70.2,29.83,SSW,202,1.7,-999.0,57,-99.99,,,0.00,Acu-Link.com,2013-07-28 15:52:00,
2013-07-28 11:07:00,87.4,69.2,29.84,SSE,157,3.7,-999.0,55,-99.99,,,0.00,Acu-Link.com,2013-07-28 16:07:00,
2013-07-28 11:22:00,86.7,68.6,29.83,West,270,3.2,-999.0,55,-99.99,,,0.00,Acu-Link.com,2013-07-28 16:22:00,
2013-07-28 11:37:00,88.2,68.3,29.83,ESE,112,1.7,-999.0,52,-99.99,,,0.00,Acu-Link.com,2013-07-28 16:37:00,
2013-07-28 11:53:00,86.9,68.8,29.83,ESE,112,2.2,-999.0,55,-99.99,,,0.00,Acu-Link.com,2013-07-28 16:53:00,
2013-07-28 12:08:00,90.0,68.8,29.82,SSE,157,7.3,-999.0,50,-99.99,,,0.00,Acu-Link.com,2013-07-28 17:08:00,
2013-07-28 12:23:00,89.6,67.9,29.81,ESE,112,7.8,-999.0,49,-99.99,,,0.00,Acu-Link.com,2013-07-28 17:23:00,
2013-07-28 12:39:00,89.1,66.8,29.81,SSW,202,3.7,-999.0,48,-99.99,,,0.00,Acu-Link.com,2013-07-28 17:39:00,
2013-07-28 12:55:00,89.4,66.5,29.80,East,90,1.7,-999.0,47,-99.99,,,0.00,Acu-Link.com,2013-07-28 17:55:00,
2013-07-28 13:10:00,92.5,68.0,29.80,ESE,112,3.7,-999.0,45,-99.99,,,0.00,Acu-Link.com,2013-07-28 18:10:00,
2013-07-28 13:25:00,93.9,67.3,29.80,SSE,157,2.7,-999.0,42,-99.99,,,0.00,Acu-Link.com,2013-07-28 18:25:00,
2013-07-28 13:40:00,93.9,68.6,29.79,SSW,202,3.7,-999.0,44,-99.99,,,0.00,Acu-Link.com,2013-07-28 18:40:00,
2013-07-28 13:55:00,96.4,67.3,29.78,ESE,112,6.3,-999.0,39,-99.99,,,0.00,Acu-Link.com,2013-07-28 18:55:00,
2013-07-28 14:11:00,92.8,67.6,29.78,SW,225,2.2,-999.0,44,-99.99,,,0.00,Acu-Link.com,2013-07-28 19:11:00,
2013-07-28 14:26:00,97.7,66.2,29.78,South,180,2.2,-999.0,36,-99.99,,,0.00,Acu-Link.com,2013-07-28 19:26:00,
2013-07-28 14:57:00,97.9,65.5,29.77,ENE,67,5.8,-999.0,35,-99.99,,,0.00,Acu-Link.com,2013-07-28 19:57:00,
2013-07-28 15:12:00,96.4,65.0,29.76,SW,225,2.7,-999.0,36,-99.99,,,0.00,Acu-Link.com,2013-07-28 20:12:00,
2013-07-28 15:28:00,96.8,66.2,29.75,WSW,247,1.7,-999.0,37,-99.99,,,0.00,Acu-Link.com,2013-07-28 20:28:00,
2013-07-28 15:43:00,96.6,64.4,29.74,SSE,157,5.8,-999.0,35,-99.99,,,0.00,Acu-Link.com,2013-07-28 20:43:00,
2013-07-28 15:58:00,94.8,62.8,29.73,SW,225,4.2,-999.0,35,-99.99,,,0.00,Acu-Link.com,2013-07-28 20:58:00,
2013-07-28 16:13:00,94.6,63.5,29.73,NNW,337,5.3,-999.0,36,-99.99,,,0.00,Acu-Link.com,2013-07-28 21:13:00,
2013-07-28 16:29:00,94.6,63.5,29.72,ENE,67,2.7,-999.0,36,-99.99,,,0.00,Acu-Link.com,2013-07-28 21:29:00,
2013-07-28 16:44:00,96.6,64.4,29.73,SW,225,3.2,-999.0,35,-99.99,,,0.00,Acu-Link.com,2013-07-28 21:44:00,
2013-07-28 16:59:00,96.4,63.4,29.71,ESE,112,1.1,-999.0,34,-99.99,,,0.00,Acu-Link.com,2013-07-28 21:59:00,
2013-07-28 17:14:00,93.7,63.4,29.70,WSW,247,0.0,-999.0,37,-99.99,,,0.00,Acu-Link.com,2013-07-28 22:14:00,
2013-07-28 17:29:00,95.9,63.8,29.70,SSE,157,3.7,-999.0,35,-99.99,,,0.00,Acu-Link.com,2013-07-28 22:29:00,
2013-07-28 17:45:00,97.5,64.4,29.71,ESE,112,2.2,-999.0,34,-99.99,,,0.00,Acu-Link.com,2013-07-28 22:45:00,
2013-07-28 18:00:00,96.8,64.6,29.70,ESE,112,3.7,-999.0,35,-99.99,,,0.00,Acu-Link.com,2013-07-28 23:00:00,
2013-07-28 18:15:00,96.4,65.0,29.70,East,90,6.8,-999.0,36,-99.99,,,0.00,Acu-Link.com,2013-07-28 23:15:00,
2013-07-28 18:30:00,95.4,64.9,29.69,ESE,112,4.7,-999.0,37,-99.99,,,0.00,Acu-Link.com,2013-07-28 23:30:00,
2013-07-28 18:46:00,95.2,64.8,29.69,ESE,112,5.3,-999.0,37,-99.99,,,0.00,Acu-Link.com,2013-07-28 23:46:00,
2013-07-28 19:16:00,93.0,66.5,29.71,SSE,157,5.8,-999.0,42,-99.99,,,0.00,Acu-Link.com,2013-07-29 00:16:00,
2013-07-28 19:32:00,91.6,67.2,29.72,ESE,112,5.3,-999.0,45,-99.99,,,0.00,Acu-Link.com,2013-07-29 00:32:00,
2013-07-28 19:47:00,91.4,68.3,29.72,SE,135,7.3,-999.0,47,-99.99,,,0.00,Acu-Link.com,2013-07-29 00:47:00,
2013-07-28 20:02:00,90.3,68.5,29.72,ESE,112,8.3,-999.0,49,-99.99,,,0.00,Acu-Link.com,2013-07-29 01:02:00,
2013-07-28 20:17:00,89.1,68.6,29.72,ESE,112,7.3,-999.0,51,-99.99,,,0.00,Acu-Link.com,2013-07-29 01:17:00,
2013-07-28 20:48:00,88.0,68.7,29.74,ESE,112,4.7,-999.0,53,-99.99,,,0.00,Acu-Link.com,2013-07-29 01:48:00,
2013-07-28 21:04:00,87.3,68.6,29.75,SSE,157,3.7,-999.0,54,-99.99,,,0.00,Acu-Link.com,2013-07-29 02:04:00,
2013-07-28 21:19:00,86.9,68.2,29.75,ESE,112,5.8,-999.0,54,-99.99,,,0.00,Acu-Link.com,2013-07-29 02:19:00,
2013-07-28 21:49:00,86.2,67.6,29.76,ESE,112,3.2,-999.0,54,-99.99,,,0.00,Acu-Link.com,2013-07-29 02:49:00,
2013-07-28 22:20:00,85.1,67.1,29.77,SE,135,3.7,-999.0,55,-99.99,,,0.00,Acu-Link.com,2013-07-29 03:20:00,
2013-07-28 22:35:00,84.7,67.8,29.79,ESE,112,4.7,-999.0,57,-99.99,,,0.00,Acu-Link.com,2013-07-29 03:35:00,
2013-07-28 23:06:00,84.7,67.8,29.79,ESE,112,5.8,-999.0,57,-99.99,,,0.00,Acu-Link.com,2013-07-29 04:06:00,
2013-07-28 23:22:00,84.6,68.2,29.78,SE,135,5.8,-999.0,58,-99.99,,,0.00,Acu-Link.com,2013-07-29 04:22:00,
2013-07-28 23:37:00,84.2,67.8,29.78,ESE,112,6.3,-999.0,58,-99.99,,,0.00,Acu-Link.com,2013-07-29 04:37:00,
2013-07-28 23:52:00,83.7,67.8,29.79,ESE,112,4.2,-999.0,59,-99.99,,,0.00,Acu-Link.com,2013-07-29 04:52:00,